RH
4 3 4 7 8 9 9 9 9 7 6 7 6 8 10 10 11 13 17 19 25 30 29 28 28 32 37 41 41 39 41 44 42 43 48 45 39 42 43 45 51 57 59 57 58 61 63 67 74 74 73 69 63 58 56 53 54 55 52 53 59 69 70 71 73 63 57 48 40 42 44 41 38 36 32 31 32 37 40 36 34 35 37 40 40 39 37 33 29 23 20 20 18 20 19 18 21
4 3 5 9 9 10 9 6 9 8 5 7 6 8 10 10 12 16 19 22 24 27 28 27 25 26 30 35 32 29 30 31 29 31 36 32 32 36 38 43 48 54 57 54 54 58 61 68 75 75 73 68 63 59 58 54 52 50 51 51 53 68 74 75 79 69 56 45 39 39 40 40 38 36 32 30 34 40 39 37 38 35 35 38 38 36 35 31 28 24 23 23 20 21 18 17 22
4 5 8 9 9 8 8 6 7 8 6 6 6 8 9 10 14 17 19 23 25 24 24 23 23 22 25 31 27 24 24 23 23 25 28 26 28 31 35 45 51 52 54 52 51 56 60 65 71 73 70 62 59 56 55 56 51 46 47 51 51 60 68 73 77 76 64 49 43 39 37 38 36 35 33 31 34 37 33 33 33 31 31 35 38 36 31 27 23 23 23 22 21 19 17 20 24
4 5 10 10 8 7 8 7 7 7 7 6 7 8 8 10 14 18 20 23 25 23 21 20 20 21 22 26 26 24 22 22 23 25 27 27 28 30 38 48 52 51 52 52 51 57 61 61 63 67 66 60 58 54 54 56 52 46 46 52 53 55 63 70 72 74 70 59 51 41 38 36 33 32 32 32 33 32 29 29 27 27 26 29 34 32 27 23 22 22 20 20 21 19 17 23 25
5 7 10 10 9 9 10 9 7 7 7 6 8 9 8 10 14 19 22 22 22 21 19 20 20 21 21 23 25 23 22 22 24 26 26 28 30 32 41 49 52 51 51 49 49 57 59 56 55 58 58 56 57 56 56 58 54 48 47 52 56 58 62 66 66 65 68 68 58 45 39 35 32 33 32 33 33 31 29 27 26 25 23 24 28 26 23 22 22 21 20 22 22 19 19 25 26
7 9 9 9 10 9 9 9 7 6 7 8 9 9 7 10 15 19 21 21 20 20 19 19 19 19 20 22 22 22 21 22 25 26 25 28 31 34 42 49 51 51 49 45 44 50 53 52 49 49 48 50 56 56 54 57 55 51 50 54 57 60 61 62 62 62 65 68 61 49 42 38 36 35 35 35 33 29 27 25 24 24 21 20 24 24 21 21 21 19 21 24 21 19 21 25 26
9 11 9 8 8 7 9 8 6 7 8 8 9 8 7 10 16 17 19 19 19 19 18 17 18 18 19 20 20 22 21 22 24 25 26 28 33 37 42 47 48 46 42 39 39 42 44 45 44 43 43 45 54 58 52 53 54 51 50 54 58 61 63 63 60 62 63 64 60 52 46 41 38 36 37 37 33 28 26 24 23 22 20 17 20 22 20 18 19 18 22 24 18 16 22 25 26
10 12 10 9 10 8 9 8 6 9 10 7 7 7 8 11 14 16 17 18 18 17 17 16 16 19 20 18 19 21 21 22 24 25 27 29 34 37 41 47 47 42 36 34 34 36 36 39 40 41 48 51 55 61 56 53 52 48 45 49 53 54 59 63 63 62 61 61 62 57 51 46 40 37 39 36 31 28 25 24 22 22 20 17 18 20 18 17 18 18 20 23 17 14 22 26 26
10 11 9 10 12 9 8 9 7 9 10 7 7 7 9 12 13 16 17 16 18 16 16 16 15 18 18 16 18 19 20 22 23 27 29 31 34 32 37 45 44 39 34 33 32 34 36 39 40 38 51 60 60 66 65 60 56 50 46 46 47 49 53 58 62 62 59 60 64 62 57 53 44 39 40 35 30 28 25 23 22 21 21 18 16 18 17 17 18 19 20 21 17 16 24 26 26
9 10 10 11 12 10 8 9 8 8 9 7 7 8 10 12 12 14 17 16 17 17 16 16 15 17 17 16 18 19 19 20 21 25 27 30 30 25 28 33 34 33 32 34 33 36 38 41 46 50 61 69 74 77 72 70 65 57 52 47 45 49 51 52 58 61 59 58 62 66 63 58 48 40 39 34 29 28 25 23 22 22 22 19 17 17 17 18 18 19 21 20 17 19 25 25 25
11 10 11 11 10 10 9 10 9 8 9 8 8 9 10 11 11 13 15 16 17 17 17 17 15 15 15 16 17 18 18 18 20 23 24 24 22 19 20 20 21 22 24 30 33 36 39 42 47 62 78 84 90 84 72 74 71 65 59 52 47 47 49 50 54 57 57 57 59 65 67 60 50 44 40 35 30 28 27 25 25 24 22 20 19 17 16 17 18 19 20 20 19 19 23 24 24
14 11 9 10 10 10 11 11 10 8 8 8 8 9 10 11 11 11 14 16 17 17 16 16 15 14 15 15 17 19 18 18 19 20 22 21 18 16 15 15 15 15 16 23 31 33 37 44 46 61 79 83 93 89 80 80 74 69 65 59 50 45 49 49 50 52 54 56 56 59 64 59 51 49 45 38 35 32 30 28 28 26 22 20 18 15 16 17 18 19 17 18 20 20 20 23 24
12 12 9 10 11 11 11 11 10 8 8 8 9 9 10 10 10 11 15 16 17 16 16 16 15 15 16 15 17 18 18 18 19 19 20 19 16 14 13 12 13 12 14 19 26 31 36 46 51 60 68 69 80 84 82 81 72 65 60 59 52 45 49 48 46 48 48 53 53 52 54 53 51 53 48 45 44 41 39 34 30 27 23 20 16 15 14 14 18 18 15 17 21 22 19 20 24
11 12 10 10 11 10 9 9 9 8 8 9 8 9 9 10 11 12 15 16 16 16 16 16 15 15 15 15 16 17 17 18 18 18 16 15 13 12 12 10 10 10 12 16 20 27 33 40 47 52 57 58 62 65 67 66 60 54 52 54 50 48 50 46 42 42 44 47 50 49 46 49 52 54 51 49 49 51 52 45 37 30 24 19 16 15 11 13 17 16 13 16 20 25 21 18 22
11 12 9 10 10 8 7 8 8 8 10 9 8 9 9 10 12 13 15 15 16 16 16 16 16 16 15 16 17 15 16 17 16 16 15 13 11 11 11 10 9 8 8 11 15 24 28 30 35 40 45 48 48 50 52 50 46 47 48 51 49 50 51 47 42 41 42 43 47 47 44 47 52 56 56 51 52 57 57 53 47 36 24 19 17 15 12 14 17 15 13 16 20 24 21 18 23
11 11 10 10 9 8 8 8 8 8 10 9 8 9 10 11 12 14 15 15 16 16 16 16 16 16 15 15 16 15 16 17 16 16 15 13 12 12 12 11 10 7 5 7 10 18 23 24 27 30 34 37 37 38 41 42 41 41 43 47 51 52 52 50 44 40 40 41 45 45 45 52 57 64 63 56 59 63 58 56 56 47 31 22 18 14 15 16 16 15 14 15 19 21 19 19 22
9 10 10 9 9 9 9 8 8 9 10 8 9 10 10 11 13 14 15 15 15 16 17 17 16 16 16 15 16 16 17 17 16 17 17 15 13 12 12 12 11 9 8 7 7 11 16 21 23 24 26 28 29 30 33 40 42 42 42 43 48 53 55 52 45 43 42 43 50 48 50 60 63 71 72 63 63 65 62 60 58 54 42 30 23 17 17 17 16 15 14 16 19 19 21 21 22
8 10 10 9 10 10 10 8 9 9 9 8 9 10 11 12 14 15 16 15 15 16 17 17 17 17 17 15 16 18 17 17 17 17 18 16 14 13 13 12 11 11 11 10 8 8 11 16 20 21 22 23 28 32 32 38 43 46 46 43 46 53 57 56 53 54 51 50 56 55 59 70 69 73 76 71 69 69 67 64 59 55 48 38 30 22 18 17 17 16 15 17 20 22 24 26 24
9 10 10 11 11 10 10 9 9 10 10 9 10 11 11 12 14 15 15 15 15 15 16 16 16 17 16 16 17 18 18 17 18 18 17 15 15 13 13 11 10 10 11 12 9 7 8 12 16 17 18 19 26 33 35 39 42 43 44 47 51 53 56 60 62 65 62 59 61 59 63 71 71 76 77 73 75 74 69 64 60 56 50 42 34 26 21 19 19 18 18 18 21 24 25 26 25
10 10 11 12 11 10 10 10 11 10 11 11 11 11 12 13 14 14 15 15 14 15 15 15 15 16 17 18 18 18 18 18 19 18 17 15 15 13 13 12 12 12 10 11 11 8 8 10 13 15 16 15 20 29 35 42 42 39 41 47 53 54 55 60 66 71 69 65 64 62 64 66 71 82 78 73 76 75 73 68 60 56 52 46 37 31 27 21 20 21 20 20 22 24 23 24 25
11 10 11 13 10 10 10 10 11 11 12 12 12 12 12 13 14 14 15 15 15 15 16 15 15 16 17 18 19 19 19 19 18 18 17 14 12 12 13 12 12 11 9 12 13 10 9 10 11 14 16 15 17 22 29 40 43 40 42 46 51 55 56 59 64 70 68 64 66 67 70 69 72 83 76 68 73 73 74 73 61 54 52 47 39 33 31 25 23 23 21 22 24 24 22 23 25
11 11 12 12 10 11 11 11 12 12 12 13 13 14 13 14 14 14 14 15 15 14 15 15 15 16 17 18 18 18 18 17 16 16 16 12 9 10 11 11 12 12 12 14 14 11 11 11 11 12 15 16 16 19 21 32 41 42 44 46 48 53 57 60 64 68 64 62 67 72 77 75 72 79 74 66 67 67 73 76 65 54 52 50 41 37 35 29 27 26 23 23 24 24 24 24 26
12 12 11 12 11 12 12 11 11 11 12 13 13 13 13 14 14 14 14 14 14 13 14 14 15 15 17 17 17 17 16 15 15 14 14 11 10 11 11 13 15 15 15 15 15 13 12 12 12 11 12 14 16 18 18 25 36 42 47 47 46 49 54 59 63 66 65 63 66 73 79 78 74 73 71 68 65 61 69 75 70 61 56 52 45 43 40 32 31 30 25 25 24 23 24 24 25
12 13 12 12 13 12 11 11 11 12 12 13 13 13 13 14 14 14 15 14 14 14 14 14 15 15 16 16 15 15 14 14 14 14 14 13 12 12 13 14 14 15 16 16 17 15 13 12 12 12 11 12 13 17 18 20 27 37 48 50 46 46 51 56 61 63 64 63 63 68 74 77 78 74 68 67 64 60 64 71 72 68 62 55 47 46 45 39 36 33 28 25 24 23 24 23 23
12 13 13 13 13 12 12 11 11 11 12 12 13 13 13 13 14 13 13 13 14 14 13 13 13 13 14 14 14 14 14 14 15 13 13 13 12 12 15 15 14 16 16 16 16 15 14 13 12 12 12 12 12 14 17 18 20 27 40 50 51 51 54 55 57 57 60 61 57 60 68 71 77 79 72 64 65 67 63 65 71 71 66 60 52 47 47 44 39 35 31 27 25 23 23 24 22
13 14 14 13 13 13 12 12 12 12 12 12 12 12 12 13 13 12 12 12 13 12 11 11 11 11 12 13 14 14 14 14 14 13 12 12 13 14 16 16 16 18 17 16 18 16 14 14 12 12 12 12 13 14 15 18 19 21 29 41 48 50 53 57 59 57 56 58 55 55 61 64 67 75 75 66 68 74 64 58 65 71 69 62 57 52 47 44 39 35 34 31 27 24 22 23 23
14 14 14 14 13 13 13 13 13 12 12 13 12 12 11 12 11 11 12 11 11 11 11 11 11 12 12 13 13 14 14 14 15 14 13 14 15 17 19 19 20 20 18 20 21 17 14 15 14 12 13 12 13 15 13 15 17 19 22 30 39 42 45 54 62 60 57 57 55 53 55 58 60 64 70 66 65 70 64 58 60 66 69 63 61 58 51 46 40 34 34 34 31 26 22 23 24
14 15 14 14 13 13 13 13 13 13 13 13 12 13 12 12 12 12 13 12 12 12 12 12 12 12 13 13 14 14 15 16 17 16 16 17 18 21 23 23 23 21 21 23 21 16 14 15 14 13 13 12 12 13 13 13 14 16 18 21 29 36 40 45 51 53 55 58 58 57 54 55 57 58 61 62 63 64 64 65 61 61 68 65 62 61 54 49 47 40 34 33 33 31 26 24 24
14 14 14 14 13 14 13 13 13 13 14 13 13 13 13 13 12 14 13 14 14 13 13 12 12 13 13 14 15 16 17 19 20 18 18 18 19 21 24 25 24 22 22 20 17 15 15 15 14 13 13 12 11 11 11 12 12 13 14 16 20 27 35 39 41 42 44 48 55 62 60 55 55 54 55 60 64 62 61 67 67 64 67 68 65 63 58 51 52 49 38 29 29 31 32 29 26
14 14 14 14 14 15 14 14 13 13 14 13 14 15 16 15 14 14 14 14 15 14 14 13 14 14 15 16 16 17 18 20 20 18 19 19 21 22 24 25 23 22 22 19 15 15 14 13 13 13 13 12 12 11 10 10 10 10 11 13 14 17 25 32 36 38 38 38 43 55 62 62 58 54 53 55 61 63 60 63 69 71 73 74 71 67 62 56 54 53 47 40 34 30 32 32 28
15 15 15 15 15 17 15 14 14 14 15 14 15 16 19 18 15 15 15 15 16 16 16 15 16 16 16 17 17 18 19 20 20 20 20 20 22 23 24 25 22 21 22 18 16 15 13 12 12 12 13 13 13 12 12 11 11 10 10 11 12 14 17 23 29 33 36 36 38 43 51 58 62 61 58 54 55 62 64 64 66 70 76 82 80 73 66 62 58 54 52 53 50 39 32 30 29
16 16 18 17 16 19 18 16 16 16 16 16 16 17 21 20 16 17 17 17 17 18 20 19 18 17 17 17 17 18 18 19 21 20 18 18 21 23 25 25 22 21 21 18 16 14 12 11 12 12 12 13 13 13 12 12 11 11 11 11 11 12 13 16 21 26 30 33 36 37 41 47 52 56 61 61 58 57 62 67 68 65 70 80 86 83 74 70 65 59 55 55 58 51 39 31 29
18 18 22 22 19 21 21 18 17 17 17 17 18 19 22 22 18 19 19 18 19 20 21 21 19 18 17 17 17 17 18 19 20 20 17 17 20 21 23 25 23 22 20 18 16 14 12 11 11 11 11 11 12 12 12 12 11 11 11 11 11 12 13 13 15 18 22 26 28 31 36 39 42 46 54 61 66 63 61 69 73 66 66 74 82 85 82 80 75 67 60 54 56 57 48 37 31
23 20 23 25 22 23 24 23 20 19 20 19 20 21 23 23 20 20 20 19 20 21 22 22 21 20 18 17 17 17 17 18 19 20 18 18 20 21 22 24 24 23 21 19 18 16 14 12 11 10 11 11 11 11 12 12 11 11 11 10 10 10 11 13 14 14 16 18 21 23 27 31 35 41 46 54 66 73 70 70 76 74 70 70 75 80 82 85 82 75 68 59 55 59 56 46 36
28 24 24 26 23 23 26 25 23 21 21 21 22 22 22 23 21 20 20 19 19 20 21 22 22 21 20 18 17 16 17 17 17 18 19 19 20 21 21 24 24 23 22 21 20 19 17 15 13 12 12 12 12 12 12 12 12 11 11 11 11 10 10 11 13 14 15 15 16 17 20 23 27 34 41 49 62 76 80 74 75 80 78 74 73 77 80 82 81 77 74 68 61 60 62 56 45
28 25 24 25 24 24 26 25 24 23 23 22 22 22 22 23 23 21 20 19 19 19 19 20 21 20 19 17 16 17 15 15 16 18 21 21 20 20 22 24 24 23 23 22 21 20 19 18 16 15 14 14 14 14 13 13 13 12 11 10 10 10 10 10 12 13 15 16 15 14 15 16 20 26 33 41 50 65 80 82 79 80 83 83 81 80 79 77 76 76 77 76 69 63 64 62 55
27 26 25 24 23 24 26 25 23 23 24 24 23 23 21 22 24 23 21 21 19 18 18 19 19 18 17 17 16 16 14 15 16 19 22 22 20 20 22 23 24 23 23 23 22 22 21 20 19 18 17 17 16 16 16 15 14 12 11 11 10 9 9 10 11 12 15 16 16 15 14 14 16 20 26 33 38 45 61 77 83 83 83 84 84 85 82 77 73 74 76 78 77 70 69 69 63
26 26 26 25 23 24 25 24 22 22 22 24 25 24 21 21 22 23 23 23 21 19 18 19 19 19 18 16 15 14 15 16 18 21 21 20 19 20 21 22 23 24 24 23 23 23 22 21 21 20 19 19 18 18 17 16 15 13 12 12 10 10 8 8 10 11 13 15 16 16 15 15 15 17 21 27 32 35 41 57 73 82 82 82 83 83 84 81 77 75 74 75 79 77 77 76 68
26 27 26 24 24 23 24 23 20 20 21 23 26 24 21 21 21 22 22 22 21 19 19 19 19 19 17 15 13 13 16 18 19 20 18 17 18 19 20 22 22 24 24 24 24 23 23 22 22 21 21 21 20 20 18 17 16 14 13 13 12 10 8 8 9 9 11 14 16 17 17 16 15 16 20 23 28 34 36 42 55 69 77 80 83 82 81 79 77 81 82 77 76 78 82 81 71
27 27 26 26 25 21 26 28 22 20 20 21 24 22 19 19 19 19 19 19 20 19 18 17 16 16 15 15 15 15 17 19 20 20 18 17 18 18 20 21 23 24 24 24 25 25 24 24 24 23 23 23 22 21 21 18 17 15 14 13 13 12 10 9 10 11 15 16 18 23 23 18 15 16 21 24 28 33 36 37 43 56 68 76 81 85 86 80 74 81 90 85 77 75 80 82 75
30 27 22 23 23 19 23 28 22 20 20 20 20 18 17 17 16 16 18 17 15 15 15 15 15 15 15 16 17 18 19 20 21 21 21 19 19 19 19 21 23 24 25 25 26 26 26 26 26 26 25 25 24 24 23 20 18 16 14 14 13 13 12 12 12 13 16 20 23 27 25 20 18 18 19 23 29 31 32 32 34 41 53 65 72 76 80 80 74 76 83 85 81 76 77 81 80
32 27 20 20 21 19 21 22 20 21 26 26 21 18 19 20 17 15 18 18 16 15 16 15 17 18 16 17 18 19 19 20 21 23 23 21 20 20 21 23 23 24 25 26 26 27 28 28 27 27 27 26 26 25 23 22 20 18 16 15 15 14 13 14 14 13 13 18 24 24 22 20 20 19 18 20 24 27 28 28 27 28 35 50 60 62 63 69 76 79 77 79 83 81 79 81 81
30 28 20 19 20 22 23 22 22 25 31 29 21 18 21 20 19 17 17 19 19 19 19 19 19 20 19 18 18 19 20 21 22 23 24 23 21 23 24 23 23 24 26 26 26 27 29 29 28 28 28 27 27 27 24 22 21 20 18 17 17 16 14 14 15 14 12 14 18 19 21 22 21 20 20 20 21 22 23 25 25 24 25 32 43 51 52 53 63 77 81 83 87 85 81 82 82
31 28 20 20 21 22 25 23 24 27 27 24 22 21 19 17 20 20 16 17 20 20 20 20 20 21 21 20 20 20 20 22 23 23 23 23 23 24 25 25 23 24 26 26 27 28 29 29 29 29 29 28 29 28 26 24 22 20 19 18 18 17 16 15 15 15 14 13 14 15 18 20 21 21 20 19 21 22 23 25 25 24 22 21 26 35 41 40 43 58 73 79 84 86 85 85 84
29 27 21 21 23 25 25 24 26 28 23 23 29 26 18 17 21 20 16 15 17 18 19 20 20 21 21 21 21 21 21 22 23 23 22 22 24 24 26 28 26 24 25 26 27 29 30 30 30 30 30 30 30 30 28 26 23 22 21 19 18 17 17 16 15 15 15 14 13 14 15 16 18 20 21 20 20 22 24 26 26 25 24 22 20 22 27 31 31 37 50 59 67 76 85 89 87
27 25 22 24 25 25 26 24 27 31 25 23 32 29 19 18 20 21 20 16 15 16 19 19 19 21 21 21 22 22 22 22 22 23 23 24 26 26 26 26 25 24 26 27 28 29 30 31 31 31 31 31 31 31 30 27 25 23 22 21 20 19 18 17 16 14 14 14 13 14 15 16 16 17 18 18 19 20 22 24 24 24 26 25 22 19 19 22 23 24 30 36 42 52 69 85 91
26 25 24 26 27 26 27 25 25 29 28 25 29 28 21 18 18 21 22 19 15 17 20 21 19 20 20 21 22 22 23 23 23 23 23 26 27 24 23 23 24 26 27 28 29 29 30 30 31 31 32 32 32 32 31 28 25 24 23 22 21 21 21 20 19 17 14 13 12 12 13 16 18 17 16 15 15 17 19 22 24 24 26 25 23 21 20 19 19 20 23 26 28 32 47 68 81
26 26 27 30 32 32 31 30 32 32 29 30 28 25 23 22 19 20 20 17 16 17 21 22 20 19 19 20 22 22 22 23 24 24 23 25 25 22 22 24 25 26 27 28 30 30 30 31 31 32 32 33 32 33 32 29 26 24 23 23 22 23 23 22 22 19 17 14 12 12 11 13 14 16 19 18 16 16 15 17 21 23 26 27 25 24 21 20 18 19 22 25 26 26 33 50 64
26 26 29 33 32 34 33 33 36 33 29 32 29 25 27 23 18 18 18 17 17 17 19 20 20 19 20 20 21 22 22 23 25 27 25 24 24 23 23 24 25 26 26 27 28 29 30 30 31 32 33 33 33 33 32 29 26 24 23 24 23 23 23 24 23 22 20 18 15 13 12 11 12 13 16 18 18 18 17 15 17 19 23 27 29 27 23 20 19 19 21 24 26 26 27 38 50
29 28 32 34 30 31 33 30 31 30 31 36 33 30 29 23 19 18 18 18 18 17 19 19 19 18 18 19 21 22 23 24 25 27 26 25 25 25 24 25 25 25 25 26 27 27 29 29 29 31 33 33 33 33 31 29 26 24 23 23 23 23 23 24 24 23 22 21 19 16 14 12 13 12 12 13 15 17 19 19 18 18 19 23 27 28 26 22 19 18 19 22 25 26 27 30 37
34 31 35 38 34 33 33 32 32 33 38 42 40 35 28 24 24 21 18 19 18 17 19 17 16 16 16 17 18 20 21 23 24 25 26 25 24 25 25 24 23 24 25 26 27 27 26 27 26 27 30 31 31 32 30 28 26 24 23 23 23 23 23 23 23 23 22 22 21 20 18 15 13 13 13 13 12 13 16 19 21 20 20 20 21 25 28 27 24 21 19 20 21 24 26 27 30
37 35 36 37 34 33 35 35 34 33 36 40 41 35 24 21 25 21 19 20 18 19 18 16 15 15 15 15 15 16 18 21 23 24 25 25 24 25 27 25 23 24 26 26 26 26 24 25 24 24 28 29 30 31 30 28 26 24 22 23 23 22 22 22 23 22 22 22 22 22 21 19 17 15 14 13 13 13 14 15 18 21 22 21 21 25 28 29 28 27 24 21 19 20 22 24 28
38 36 34 33 33 35 38 38 37 36 35 34 35 34 25 23 25 22 21 21 19 20 19 17 18 16 16 16 14 15 18 20 23 25 25 25 24 25 27 27 25 25 26 25 24 24 23 24 23 23 26 28 29 31 30 28 26 24 23 23 23 22 22 22 22 22 22 22 23 22 22 21 20 18 16 15 14 14 15 15 16 18 21 23 23 25 28 29 30 30 29 27 23 20 20 21 24
35 34 34 35 38 38 38 40 41 41 40 34 34 36 32 28 28 26 23 22 20 21 21 21 21 20 19 18 16 17 19 21 22 24 25 26 26 28 29 30 29 27 25 25 24 24 24 24 23 23 25 28 30 32 31 29 27 25 24 24 23 23 22 22 22 23 23 23 23 23 23 22 21 21 19 17 17 17 17 17 17 18 20 23 23 24 26 30 32 32 31 30 29 25 21 21 21
30 31 34 38 41 39 40 46 45 43 44 42 39 41 38 32 29 26 25 24 22 21 22 23 24 24 23 21 20 20 21 22 22 24 27 28 29 31 31 33 35 31 26 25 25 25 25 25 24 23 25 28 31 33 33 30 28 27 26 24 24 23 23 23 23 23 23 23 23 23 23 21 21 20 20 21 22 23 22 22 21 21 21 22 24 25 26 30 32 33 33 32 31 30 27 23 21
36 36 35 37 38 35 37 43 42 41 44 43 39 40 39 35 31 26 25 26 26 23 23 24 25 26 26 24 23 23 23 24 25 27 29 29 31 32 32 36 40 34 28 27 27 27 27 27 25 24 26 29 32 34 34 31 29 28 27 26 25 25 24 24 24 24 24 23 24 24 25 25 25 25 23 24 27 28 28 27 26 26 26 26 26 26 27 29 31 33 34 34 33 32 31 28 24
41 42 41 42 43 42 43 42 38 38 40 38 37 37 33 31 31 29 26 27 27 26 25 26 28 29 29 27 26 25 25 26 27 29 30 31 36 35 34 38 39 32 28 28 28 29 29 28 27 26 27 30 33 35 35 33 32 31 29 28 27 26 26 26 26 25 25 25 27 30 30 30 30 29 27 26 28 31 32 31 30 30 31 32 32 30 29 30 32 33 34 35 35 34 33 32 31
37 38 39 43 48 50 51 48 41 40 43 41 40 36 31 31 33 33 30 27 25 26 28 30 31 32 33 31 29 28 28 28 28 30 31 33 36 36 37 39 36 30 29 29 29 30 30 29 28 27 27 31 34 36 36 35 34 33 31 30 29 28 27 27 27 26 25 28 33 36 35 33 32 31 30 28 28 32 35 35 35 34 35 35 35 35 34 33 32 32 34 35 36 37 36 35 34